Time,TemperatureF,DewpointF,PressureIn,WindDirection,WindDirectionDegrees,WindSpeedMPH,WindSpeedGustMPH,Humidity,HourlyPrecipIn,Conditions,Clouds,dailyrainin,SoftwareType,DateUTC
2013-06-21 00:01:00,62.5,54.5,30.19,SSE,159,0.0,1.0,75,0.00,,,0.00,WeatherCatV1.15B25,2013-06-21 04:01:00,
2013-06-21 00:06:00,62.4,54.4,30.19,ESE,123,0.0,2.0,75,0.00,,,0.00,WeatherCatV1.15B25,2013-06-21 04:06:00,
2013-06-21 00:11:00,62.3,54.3,30.19,East,80,0.0,1.0,75,0.00,,,0.00,WeatherCatV1.15B25,2013-06-21 04:11:00,
2013-06-21 00:16:00,62.2,54.5,30.19,SE,139,0.0,0.0,76,0.00,,,0.00,WeatherCatV1.15B25,2013-06-21 04:16:00,
2013-06-21 00:21:00,62.1,54.4,30.19,SE,139,0.0,0.0,76,0.00,,,0.00,WeatherCatV1.15B25,2013-06-21 04:21:00,
2013-06-21 00:26:00,62.0,54.3,30.19,SE,139,0.0,0.0,76,0.00,,,0.00,WeatherCatV1.15B25,2013-06-21 04:26:00,
2013-06-21 00:31:00,61.9,54.2,30.19,WSW,250,0.0,0.0,76,0.00,,,0.00,WeatherCatV1.15B25,2013-06-21 04:31:00,
2013-06-21 00:36:00,61.8,54.2,30.19,WSW,250,0.0,0.0,76,0.00,,,0.00,WeatherCatV1.15B25,2013-06-21 04:36:00,
2013-06-21 00:41:00,61.7,54.1,30.19,WSW,250,0.0,1.0,76,0.00,,,0.00,WeatherCatV1.15B25,2013-06-21 04:41:00,
2013-06-21 00:46:00,61.6,54.0,30.19,West,259,0.0,2.0,76,0.00,,,0.00,WeatherCatV1.15B25,2013-06-21 04:46:00,
2013-06-21 00:51:00,61.5,53.9,30.19,WSW,241,0.0,3.0,76,0.00,,,0.00,WeatherCatV1.15B25,2013-06-21 04:51:00,
2013-06-21 00:55:00,61.5,54.2,30.19,WSW,256,2.0,4.0,77,0.00,,,0.00,WeatherCatV1.15B25,2013-06-21 04:55:00,
2013-06-21 01:00:00,61.4,54.1,30.19,SSW,205,0.0,6.0,77,0.00,,,0.00,WeatherCatV1.15B25,2013-06-21 05:00:00,
2013-06-21 01:05:00,61.3,54.0,30.19,SSW,200,0.0,1.0,77,0.00,,,0.00,WeatherCatV1.15B25,2013-06-21 05:05:00,
2013-06-21 01:10:00,61.3,54.0,30.19,SE,135,0.0,2.0,77,0.00,,,0.00,WeatherCatV1.15B25,2013-06-21 05:10:00,
2013-06-21 01:15:00,61.2,53.9,30.19,SSW,207,0.0,3.0,77,0.00,,,0.00,WeatherCatV1.15B25,2013-06-21 05:15:00,
2013-06-21 01:20:00,61.2,54.3,30.19,WSW,249,0.0,3.0,78,0.00,,,0.00,WeatherCatV1.15B25,2013-06-21 05:20:00,
2013-06-21 01:25:00,61.1,54.2,30.19,WSW,247,5.0,5.0,78,0.00,,,0.00,WeatherCatV1.15B25,2013-06-21 05:25:00,
2013-06-21 01:30:00,61.0,54.1,30.18,South,169,0.0,0.0,78,0.00,,,0.00,WeatherCatV1.15B25,2013-06-21 05:30:00,
2013-06-21 01:35:00,60.9,54.3,30.18,SSW,204,0.0,5.0,79,0.00,,,0.00,WeatherCatV1.15B25,2013-06-21 05:35:00,
2013-06-21 01:40:00,60.9,54.3,30.18,SE,140,0.0,5.0,79,0.00,,,0.00,WeatherCatV1.15B25,2013-06-21 05:40:00,
2013-06-21 01:45:00,60.8,54.2,30.18,SW,236,2.0,5.0,79,0.00,,,0.00,WeatherCatV1.15B25,2013-06-21 05:45:00,
2013-06-21 01:50:00,60.8,54.2,30.18,SW,217,5.0,5.0,79,0.00,,,0.00,WeatherCatV1.15B25,2013-06-21 05:50:00,
2013-06-21 01:55:00,60.7,54.1,30.18,NW,310,1.0,1.0,79,0.00,,,0.00,WeatherCatV1.15B25,2013-06-21 05:55:00,
2013-06-21 02:00:00,60.6,54.4,30.18,SW,227,0.0,1.0,80,0.00,,,0.00,WeatherCatV1.15B25,2013-06-21 06:00:00,
2013-06-21 02:05:00,60.5,54.3,30.18,SSW,213,0.0,7.0,80,0.00,,,0.00,WeatherCatV1.15B25,2013-06-21 06:05:00,
2013-06-21 02:10:00,60.5,54.3,30.18,WSW,258,2.0,5.0,80,0.00,,,0.00,WeatherCatV1.15B25,2013-06-21 06:10:00,
2013-06-21 02:15:00,60.5,54.3,30.18,WNW,289,1.0,2.0,80,0.00,,,0.00,WeatherCatV1.15B25,2013-06-21 06:15:00,
2013-06-21 02:20:00,60.5,54.3,30.18,WNW,288,0.0,1.0,80,0.00,,,0.00,WeatherCatV1.15B25,2013-06-21 06:20:00,
2013-06-21 02:25:00,60.4,54.2,30.18,WSW,253,0.0,1.0,80,0.00,,,0.00,WeatherCatV1.15B25,2013-06-21 06:25:00,
2013-06-21 02:30:00,60.3,54.1,30.18,WSW,245,0.0,0.0,80,0.00,,,0.00,WeatherCatV1.15B25,2013-06-21 06:30:00,
2013-06-21 02:35:00,60.2,54.3,30.18,SSW,207,0.0,2.0,81,0.00,,,0.00,WeatherCatV1.15B25,2013-06-21 06:35:00,
2013-06-21 02:40:00,60.1,54.2,30.18,SW,224,0.0,6.0,81,0.00,,,0.00,WeatherCatV1.15B25,2013-06-21 06:40:00,
2013-06-21 02:45:00,60.0,54.1,30.18,WSW,258,0.0,1.0,81,0.00,,,0.00,WeatherCatV1.15B25,2013-06-21 06:45:00,
2013-06-21 02:50:00,60.0,54.5,30.18,WSW,237,3.0,5.0,82,0.00,,,0.00,WeatherCatV1.15B25,2013-06-21 06:50:00,
2013-06-21 02:55:00,59.9,54.4,30.18,SSE,156,0.0,1.0,82,0.00,,,0.00,WeatherCatV1.15B25,2013-06-21 06:55:00,
2013-06-21 03:00:00,59.8,54.3,30.18,SSE,154,0.0,1.0,82,0.00,,,0.00,WeatherCatV1.15B25,2013-06-21 07:00:00,
2013-06-21 03:05:00,59.8,54.3,30.17,SSE,161,0.0,0.0,82,0.00,,,0.00,WeatherCatV1.15B25,2013-06-21 07:05:00,
2013-06-21 03:10:00,59.7,54.5,30.17,SW,217,0.0,4.0,83,0.00,,,0.00,WeatherCatV1.15B25,2013-06-21 07:10:00,
2013-06-21 03:15:00,59.7,54.5,30.17,SSW,207,0.0,1.0,83,0.00,,,0.00,WeatherCatV1.15B25,2013-06-21 07:15:00,
2013-06-21 03:20:00,59.7,54.5,30.17,SSW,195,0.0,8.0,83,0.00,,,0.00,WeatherCatV1.15B25,2013-06-21 07:20:00,
2013-06-21 03:25:00,59.8,54.3,30.17,SW,224,1.0,4.0,82,0.00,,,0.00,WeatherCatV1.15B25,2013-06-21 07:25:00,
2013-06-21 03:30:00,59.8,54.3,30.17,WSW,248,0.0,1.0,82,0.00,,,0.00,WeatherCatV1.15B25,2013-06-21 07:30:00,
2013-06-21 03:35:00,59.8,54.3,30.18,SSW,213,0.0,8.0,82,0.00,,,0.00,WeatherCatV1.15B25,2013-06-21 07:35:00,
2013-06-21 03:40:00,59.8,54.3,30.18,West,277,0.0,0.0,82,0.00,,,0.00,WeatherCatV1.15B25,2013-06-21 07:40:00,
2013-06-21 03:45:00,59.8,54.6,30.18,SSW,208,0.0,1.0,83,0.00,,,0.00,WeatherCatV1.15B25,2013-06-21 07:45:00,
2013-06-21 03:50:00,59.8,54.6,30.17,South,190,0.0,1.0,83,0.00,,,0.00,WeatherCatV1.15B25,2013-06-21 07:50:00,
2013-06-21 03:55:00,59.7,54.5,30.17,SSW,194,0.0,0.0,83,0.00,,,0.00,WeatherCatV1.15B25,2013-06-21 07:55:00,
2013-06-21 04:00:00,59.6,54.4,30.17,WNW,300,0.0,2.0,83,0.00,,,0.00,WeatherCatV1.15B25,2013-06-21 08:00:00,
2013-06-21 04:05:00,59.6,54.4,30.17,West,260,0.0,2.0,83,0.00,,,0.00,WeatherCatV1.15B25,2013-06-21 08:05:00,
2013-06-21 04:10:00,59.6,54.4,30.17,SW,229,0.0,7.0,83,0.00,,,0.00,WeatherCatV1.15B25,2013-06-21 08:10:00,
2013-06-21 04:15:00,59.6,54.4,30.17,SSW,196,0.0,1.0,83,0.00,,,0.00,WeatherCatV1.15B25,2013-06-21 08:15:00,
2013-06-21 04:20:00,59.6,54.4,30.17,SSW,205,1.0,1.0,83,0.00,,,0.00,WeatherCatV1.15B25,2013-06-21 08:20:00,
2013-06-21 04:25:00,59.6,54.4,30.18,SSW,204,0.0,2.0,83,0.00,,,0.00,WeatherCatV1.15B25,2013-06-21 08:25:00,
2013-06-21 04:30:00,59.6,54.4,30.18,WSW,252,0.0,4.0,83,0.00,,,0.00,WeatherCatV1.15B25,2013-06-21 08:30:00,
2013-06-21 04:35:00,59.6,54.4,30.18,South,178,0.0,0.0,83,0.00,,,0.00,WeatherCatV1.15B25,2013-06-21 08:35:00,
2013-06-21 04:40:00,59.6,54.4,30.18,SW,219,0.0,1.0,83,0.00,,,0.00,WeatherCatV1.15B25,2013-06-21 08:40:00,
2013-06-21 04:45:00,59.5,54.3,30.17,SSE,149,0.0,1.0,83,0.00,,,0.00,WeatherCatV1.15B25,2013-06-21 08:45:00,
2013-06-21 04:50:00,59.5,54.3,30.17,SSW,204,1.0,2.0,83,0.00,,,0.00,WeatherCatV1.15B25,2013-06-21 08:50:00,
2013-06-21 04:55:00,59.5,54.3,30.17,SSE,160,0.0,2.0,83,0.00,,,0.00,WeatherCatV1.15B25,2013-06-21 08:55:00,
2013-06-21 05:00:00,59.4,54.2,30.18,WSW,245,0.0,6.0,83,0.00,,,0.00,WeatherCatV1.15B25,2013-06-21 09:00:00,
2013-06-21 05:05:00,59.4,54.2,30.18,South,180,0.0,2.0,83,0.00,,,0.00,WeatherCatV1.15B25,2013-06-21 09:05:00,
2013-06-21 05:10:00,59.4,54.2,30.17,WSW,241,4.0,4.0,83,0.00,,,0.00,WeatherCatV1.15B25,2013-06-21 09:10:00,
2013-06-21 05:15:00,59.4,53.9,30.17,SW,225,0.0,1.0,82,0.00,,,0.00,WeatherCatV1.15B25,2013-06-21 09:15:00,
2013-06-21 05:20:00,59.4,53.9,30.18,WSW,246,0.0,2.0,82,0.00,,,0.00,WeatherCatV1.15B25,2013-06-21 09:20:00,
2013-06-21 05:25:00,59.4,53.9,30.18,South,184,0.0,6.0,82,0.00,,,0.00,WeatherCatV1.15B25,2013-06-21 09:25:00,
2013-06-21 05:30:00,59.4,53.9,30.18,WSW,242,0.0,7.0,82,0.00,,,0.00,WeatherCatV1.15B25,2013-06-21 09:30:00,
2013-06-21 05:35:00,59.4,53.9,30.18,WNW,290,0.0,3.0,82,0.00,,,0.00,WeatherCatV1.15B25,2013-06-21 09:35:00,
2013-06-21 05:40:00,59.4,53.9,30.18,West,272,0.0,3.0,82,0.00,,,0.00,WeatherCatV1.15B25,2013-06-21 09:40:00,
2013-06-21 05:45:00,59.3,53.8,30.18,SW,229,1.0,3.0,82,0.00,,,0.00,WeatherCatV1.15B25,2013-06-21 09:45:00,
2013-06-21 05:50:00,59.3,53.8,30.18,SSE,161,0.0,2.0,82,0.00,,,0.00,WeatherCatV1.15B25,2013-06-21 09:50:00,
2013-06-21 05:55:00,59.4,53.9,30.18,SSW,198,0.0,2.0,82,0.00,,,0.00,WeatherCatV1.15B25,2013-06-21 09:55:00,
2013-06-21 06:00:00,59.4,53.9,30.18,SW,231,0.0,5.0,82,0.00,,,0.00,WeatherCatV1.15B25,2013-06-21 10:00:00,
2013-06-21 06:05:00,59.5,54.0,30.18,South,189,0.0,2.0,82,0.00,,,0.00,WeatherCatV1.15B25,2013-06-21 10:05:00,
2013-06-21 06:10:00,59.6,54.1,30.18,WSW,250,1.0,7.0,82,0.00,,,0.00,WeatherCatV1.15B25,2013-06-21 10:10:00,
2013-06-21 06:15:00,59.7,53.9,30.18,West,259,1.0,11.0,81,0.00,,,0.00,WeatherCatV1.15B25,2013-06-21 10:15:00,
2013-06-21 06:20:00,59.8,54.0,30.18,West,262,0.0,0.0,81,0.00,,,0.00,WeatherCatV1.15B25,2013-06-21 10:20:00,
2013-06-21 06:25:00,60.0,54.1,30.18,SW,228,3.0,6.0,81,0.00,,,0.00,WeatherCatV1.15B25,2013-06-21 10:25:00,
2013-06-21 06:30:00,60.2,54.0,30.18,SSW,212,1.0,6.0,80,0.00,,,0.00,WeatherCatV1.15B25,2013-06-21 10:30:00,
2013-06-21 06:35:00,60.4,54.2,30.18,SW,221,0.0,1.0,80,0.00,,,0.00,WeatherCatV1.15B25,2013-06-21 10:35:00,
2013-06-21 06:40:00,60.6,54.4,30.18,SSW,213,0.0,6.0,80,0.00,,,0.00,WeatherCatV1.15B25,2013-06-21 10:40:00,
2013-06-21 06:45:00,60.8,54.2,30.19,SSW,213,0.0,7.0,79,0.00,,,0.00,WeatherCatV1.15B25,2013-06-21 10:45:00,
2013-06-21 06:50:00,60.9,54.3,30.19,South,182,5.0,8.0,79,0.00,,,0.00,WeatherCatV1.15B25,2013-06-21 10:50:00,
2013-06-21 06:55:00,61.1,54.5,30.18,WSW,241,3.0,9.0,79,0.00,,,0.00,WeatherCatV1.15B25,2013-06-21 10:55:00,
2013-06-21 07:00:00,61.3,54.4,30.19,WSW,244,0.0,9.0,78,0.00,,,0.00,WeatherCatV1.15B25,2013-06-21 11:00:00,
2013-06-21 07:05:00,61.6,54.7,30.18,SW,232,3.0,6.0,78,0.00,,,0.00,WeatherCatV1.15B25,2013-06-21 11:05:00,
2013-06-21 07:10:00,61.8,54.9,30.18,SE,144,0.0,2.0,78,0.00,,,0.00,WeatherCatV1.15B25,2013-06-21 11:10:00,
2013-06-21 07:15:00,62.2,54.9,30.18,WNW,288,5.0,9.0,77,0.00,,,0.00,WeatherCatV1.15B25,2013-06-21 11:15:00,
2013-06-21 07:20:00,62.6,54.9,30.18,SSW,194,0.0,6.0,76,0.00,,,0.00,WeatherCatV1.15B25,2013-06-21 11:20:00,
2013-06-21 07:25:00,62.9,54.8,30.18,SSW,211,6.0,10.0,75,0.00,,,0.00,WeatherCatV1.15B25,2013-06-21 11:25:00,
2013-06-21 07:30:00,63.1,55.0,30.18,WNW,298,0.0,3.0,75,0.00,,,0.00,WeatherCatV1.15B25,2013-06-21 11:30:00,
2013-06-21 07:35:00,63.4,55.0,30.18,WSW,247,4.0,5.0,74,0.00,,,0.00,WeatherCatV1.15B25,2013-06-21 11:35:00,
2013-06-21 07:40:00,63.6,55.2,30.18,West,259,0.0,5.0,74,0.00,,,0.00,WeatherCatV1.15B25,2013-06-21 11:40:00,
2013-06-21 07:45:00,63.9,55.1,30.18,South,182,0.0,6.0,73,0.00,,,0.00,WeatherCatV1.15B25,2013-06-21 11:45:00,
2013-06-21 07:50:00,64.1,55.6,30.18,SW,231,4.0,4.0,74,0.00,,,0.00,WeatherCatV1.15B25,2013-06-21 11:50:00,
2013-06-21 07:55:00,64.5,55.3,30.18,SSW,200,2.0,11.0,72,0.00,,,0.00,WeatherCatV1.15B25,2013-06-21 11:55:00,
2013-06-21 08:00:00,64.6,55.7,30.19,WSW,238,1.0,7.0,73,0.00,,,0.00,WeatherCatV1.15B25,2013-06-21 12:00:00,
2013-06-21 08:05:00,65.0,56.1,30.18,South,179,0.0,3.0,73,0.00,,,0.00,WeatherCatV1.15B25,2013-06-21 12:05:00,
2013-06-21 08:10:00,65.4,56.5,30.18,SW,222,2.0,3.0,73,0.00,,,0.00,WeatherCatV1.15B25,2013-06-21 12:10:00,
2013-06-21 08:15:00,65.8,56.5,30.18,SW,231,5.0,5.0,72,0.00,,,0.00,WeatherCatV1.15B25,2013-06-21 12:15:00,
2013-06-21 08:20:00,66.0,56.7,30.18,West,269,2.0,10.0,72,0.00,,,0.00,WeatherCatV1.15B25,2013-06-21 12:20:00,
2013-06-21 08:25:00,66.3,57.0,30.18,SW,229,3.0,4.0,72,0.00,,,0.00,WeatherCatV1.15B25,2013-06-21 12:25:00,
2013-06-21 08:30:00,66.7,57.0,30.18,SW,236,5.0,9.0,71,0.00,,,0.00,WeatherCatV1.15B25,2013-06-21 12:30:00,
2013-06-21 08:35:00,66.9,57.2,30.18,ESE,123,2.0,7.0,71,0.00,,,0.00,WeatherCatV1.15B25,2013-06-21 12:35:00,
2013-06-21 08:40:00,67.2,57.5,30.18,WSW,238,5.0,5.0,71,0.00,,,0.00,WeatherCatV1.15B25,2013-06-21 12:40:00,
2013-06-21 08:45:00,67.6,57.9,30.18,WSW,244,4.0,6.0,71,0.00,,,0.00,WeatherCatV1.15B25,2013-06-21 12:45:00,
2013-06-21 08:50:00,67.9,58.1,30.18,SSW,194,1.0,10.0,71,0.00,,,0.00,WeatherCatV1.15B25,2013-06-21 12:50:00,
2013-06-21 08:55:00,67.9,57.7,30.18,SW,215,5.0,9.0,70,0.00,,,0.00,WeatherCatV1.15B25,2013-06-21 12:55:00,
2013-06-21 09:00:00,68.3,58.1,30.18,South,185,0.0,2.0,70,0.00,,,0.00,WeatherCatV1.15B25,2013-06-21 13:00:00,
2013-06-21 09:05:00,68.9,58.3,30.17,SSE,159,2.0,4.0,69,0.00,,,0.00,WeatherCatV1.15B25,2013-06-21 13:05:00,
2013-06-21 09:10:00,69.2,58.6,30.17,WNW,286,1.0,3.0,69,0.00,,,0.00,WeatherCatV1.15B25,2013-06-21 13:10:00,
2013-06-21 09:15:00,69.4,58.4,30.17,ESE,118,2.0,2.0,68,0.00,,,0.00,WeatherCatV1.15B25,2013-06-21 13:15:00,
2013-06-21 09:20:00,69.8,58.7,30.17,SE,142,2.0,4.0,68,0.00,,,0.00,WeatherCatV1.15B25,2013-06-21 13:20:00,
2013-06-21 09:25:00,70.3,59.6,30.17,SW,218,0.0,2.0,69,0.00,,,0.00,WeatherCatV1.15B25,2013-06-21 13:25:00,
2013-06-21 09:30:00,70.8,59.3,30.17,WSW,242,0.0,4.0,67,0.00,,,0.00,WeatherCatV1.15B25,2013-06-21 13:30:00,
2013-06-21 09:35:00,71.3,59.8,30.17,SE,129,0.0,4.0,67,0.00,,,0.00,WeatherCatV1.15B25,2013-06-21 13:35:00,
2013-06-21 09:40:00,71.7,59.7,30.17,SSW,206,3.0,8.0,66,0.00,,,0.00,WeatherCatV1.15B25,2013-06-21 13:40:00,
2013-06-21 09:45:00,71.9,60.8,30.17,SW,234,3.0,3.0,68,0.00,,,0.00,WeatherCatV1.15B25,2013-06-21 13:45:00,
2013-06-21 09:50:00,72.1,59.7,30.17,South,171,0.0,7.0,65,0.00,,,0.00,WeatherCatV1.15B25,2013-06-21 13:50:00,
2013-06-21 09:55:00,72.2,60.2,30.17,SSW,195,3.0,3.0,66,0.00,,,0.00,WeatherCatV1.15B25,2013-06-21 13:55:00,
2013-06-21 10:00:00,72.6,60.1,30.17,WSW,256,0.0,1.0,65,0.00,,,0.00,WeatherCatV1.15B25,2013-06-21 14:00:00,
2013-06-21 10:05:00,73.1,60.2,30.17,SW,229,0.0,6.0,64,0.00,,,0.00,WeatherCatV1.15B25,2013-06-21 14:05:00,
2013-06-21 10:10:00,73.0,60.5,30.18,WSW,242,0.0,5.0,65,0.00,,,0.00,WeatherCatV1.15B25,2013-06-21 14:10:00,
2013-06-21 10:15:00,73.4,60.9,30.18,SW,229,4.0,5.0,65,0.00,,,0.00,WeatherCatV1.15B25,2013-06-21 14:15:00,
2013-06-21 10:20:00,73.9,60.9,30.18,SW,221,0.0,0.0,64,0.00,,,0.00,WeatherCatV1.15B25,2013-06-21 14:20:00,
2013-06-21 10:25:00,74.4,61.0,30.18,SW,234,0.0,6.0,63,0.00,,,0.00,WeatherCatV1.15B25,2013-06-21 14:25:00,
2013-06-21 10:30:00,74.3,60.9,30.18,SW,223,0.0,2.0,63,0.00,,,0.00,WeatherCatV1.15B25,2013-06-21 14:30:00,
2013-06-21 10:35:00,74.1,60.7,30.18,SW,236,0.0,8.0,63,0.00,,,0.00,WeatherCatV1.15B25,2013-06-21 14:35:00,
2013-06-21 10:37:00,74.1,60.7,30.18,SW,229,2.0,8.0,63,0.00,,,0.00,WeatherCatV1.15B25,2013-06-21 14:37:00,
2013-06-21 10:42:00,74.5,61.1,30.17,SW,234,10.0,10.0,63,0.00,,,0.00,WeatherCatV1.15B25,2013-06-21 14:42:00,
2013-06-21 10:47:00,74.3,60.9,30.17,SW,227,5.0,7.0,63,0.00,,,0.00,WeatherCatV1.15B25,2013-06-21 14:47:00,
2013-06-21 10:52:00,74.8,61.8,30.17,SW,224,0.0,3.0,64,0.00,,,0.00,WeatherCatV1.15B25,2013-06-21 14:52:00,
2013-06-21 10:57:00,75.5,61.5,30.18,WSW,250,6.0,6.0,62,0.00,,,0.00,WeatherCatV1.15B25,2013-06-21 14:57:00,
2013-06-21 11:02:00,75.7,61.7,30.18,SSW,207,2.0,4.0,62,0.00,,,0.00,WeatherCatV1.15B25,2013-06-21 15:02:00,
2013-06-21 11:07:00,76.2,61.7,30.18,ESE,118,0.0,3.0,61,0.00,,,0.00,WeatherCatV1.15B25,2013-06-21 15:07:00,
2013-06-21 11:12:00,76.6,62.1,30.18,SW,227,0.0,4.0,61,0.00,,,0.00,WeatherCatV1.15B25,2013-06-21 15:12:00,
2013-06-21 11:17:00,76.9,62.9,30.18,West,259,0.0,1.0,62,0.00,,,0.00,WeatherCatV1.15B25,2013-06-21 15:17:00,
2013-06-21 11:22:00,77.4,61.9,30.18,WSW,243,3.0,4.0,59,0.00,,,0.00,WeatherCatV1.15B25,2013-06-21 15:22:00,
2013-06-21 11:27:00,77.4,61.9,30.18,WSW,238,1.0,4.0,59,0.00,,,0.00,WeatherCatV1.15B25,2013-06-21 15:27:00,
2013-06-21 11:32:00,77.2,62.2,30.18,SW,235,0.0,7.0,60,0.00,,,0.00,WeatherCatV1.15B25,2013-06-21 15:32:00,
2013-06-21 11:37:00,77.4,62.4,30.18,SSW,196,1.0,2.0,60,0.00,,,0.00,WeatherCatV1.15B25,2013-06-21 15:37:00,
2013-06-21 11:42:00,77.6,62.6,30.18,West,275,0.0,3.0,60,0.00,,,0.00,WeatherCatV1.15B25,2013-06-21 15:42:00,
2013-06-21 11:47:00,77.8,62.3,30.18,SSW,200,5.0,5.0,59,0.00,,,0.00,WeatherCatV1.15B25,2013-06-21 15:47:00,
2013-06-21 11:52:00,77.9,62.4,30.18,North,353,0.0,3.0,59,0.00,,,0.00,WeatherCatV1.15B25,2013-06-21 15:52:00,
2013-06-21 11:57:00,78.3,62.3,30.17,SW,224,1.0,6.0,58,0.00,,,0.00,WeatherCatV1.15B25,2013-06-21 15:57:00,
2013-06-21 12:02:00,78.2,61.7,30.17,SE,126,2.0,4.0,57,0.00,,,0.00,WeatherCatV1.15B25,2013-06-21 16:02:00,
2013-06-21 12:07:00,78.1,63.1,30.17,SE,144,0.0,0.0,60,0.00,,,0.00,WeatherCatV1.15B25,2013-06-21 16:07:00,
2013-06-21 12:12:00,78.6,62.6,30.17,SSW,197,1.0,5.0,58,0.00,,,0.00,WeatherCatV1.15B25,2013-06-21 16:12:00,
2013-06-21 12:17:00,78.8,62.3,30.17,WSW,240,1.0,4.0,57,0.00,,,0.00,WeatherCatV1.15B25,2013-06-21 16:17:00,
2013-06-21 12:22:00,78.9,62.3,30.17,SE,144,0.0,1.0,57,0.00,,,0.00,WeatherCatV1.15B25,2013-06-21 16:22:00,
2013-06-21 12:27:00,78.9,63.3,30.16,West,267,0.0,2.0,59,0.00,,,0.00,WeatherCatV1.15B25,2013-06-21 16:27:00,
2013-06-21 12:32:00,79.2,63.1,30.17,WSW,256,0.0,5.0,58,0.00,,,0.00,WeatherCatV1.15B25,2013-06-21 16:32:00,
2013-06-21 12:37:00,79.1,62.0,30.17,South,177,2.0,6.0,56,0.00,,,0.00,WeatherCatV1.15B25,2013-06-21 16:37:00,
2013-06-21 12:42:00,79.1,62.5,30.17,SSE,154,1.0,8.0,57,0.00,,,0.00,WeatherCatV1.15B25,2013-06-21 16:42:00,
2013-06-21 12:47:00,79.1,62.5,30.17,West,259,1.0,4.0,57,0.00,,,0.00,WeatherCatV1.15B25,2013-06-21 16:47:00,
2013-06-21 12:52:00,79.7,64.6,30.16,West,260,2.0,2.0,60,0.00,,,0.00,WeatherCatV1.15B25,2013-06-21 16:52:00,
2013-06-21 12:57:00,80.0,63.4,30.16,WSW,238,0.0,6.0,57,0.00,,,0.00,WeatherCatV1.15B25,2013-06-21 16:57:00,
2013-06-21 13:02:00,80.0,63.4,30.16,WSW,254,0.0,2.0,57,0.00,,,0.00,WeatherCatV1.15B25,2013-06-21 17:02:00,
2013-06-21 13:07:00,79.8,63.7,30.16,WSW,255,0.0,1.0,58,0.00,,,0.00,WeatherCatV1.15B25,2013-06-21 17:07:00,
2013-06-21 13:12:00,80.1,64.0,30.16,SSW,213,1.0,6.0,58,0.00,,,0.00,WeatherCatV1.15B25,2013-06-21 17:12:00,
2013-06-21 13:17:00,80.0,62.9,30.16,SSW,192,2.0,10.0,56,0.00,,,0.00,WeatherCatV1.15B25,2013-06-21 17:17:00,
2013-06-21 13:22:00,80.0,63.9,30.16,West,259,1.0,2.0,58,0.00,,,0.00,WeatherCatV1.15B25,2013-06-21 17:22:00,
2013-06-21 13:27:00,80.4,64.7,30.15,West,262,1.0,2.0,59,0.00,,,0.00,WeatherCatV1.15B25,2013-06-21 17:27:00,
2013-06-21 13:32:00,80.6,63.9,30.16,SE,125,4.0,6.0,57,0.00,,,0.00,WeatherCatV1.15B25,2013-06-21 17:32:00,
2013-06-21 13:37:00,80.2,63.6,30.16,SE,137,0.0,3.0,57,0.00,,,0.00,WeatherCatV1.15B25,2013-06-21 17:37:00,
2013-06-21 13:42:00,80.0,63.4,30.15,SW,231,5.0,10.0,57,0.00,,,0.00,WeatherCatV1.15B25,2013-06-21 17:42:00,
2013-06-21 13:46:00,79.8,63.7,30.15,WSW,244,0.0,3.0,58,0.00,,,0.00,WeatherCatV1.15B25,2013-06-21 17:46:00,
2013-06-21 13:51:00,79.6,63.0,30.15,WSW,256,0.0,4.0,57,0.00,,,0.00,WeatherCatV1.15B25,2013-06-21 17:51:00,
2013-06-21 13:54:00,79.5,63.4,30.15,WSW,256,1.0,5.0,58,0.00,,,0.00,WeatherCatV1.15B25,2013-06-21 17:54:00,
2013-06-21 13:55:00,79.4,63.3,30.15,SW,231,0.0,3.0,58,0.00,,,0.00,WeatherCatV1.15B25,2013-06-21 17:55:00,
2013-06-21 14:00:00,79.7,63.6,30.15,SW,225,2.0,4.0,58,0.00,,,0.00,WeatherCatV1.15B25,2013-06-21 18:00:00,
2013-06-21 14:05:00,79.4,63.3,30.15,WSW,246,0.0,7.0,58,0.00,,,0.00,WeatherCatV1.15B25,2013-06-21 18:05:00,
2013-06-21 14:10:00,79.5,65.8,30.15,South,181,0.0,0.0,63,0.00,,,0.00,WeatherCatV1.15B25,2013-06-21 18:10:00,
2013-06-21 14:15:00,80.3,64.2,30.14,SW,227,3.0,5.0,58,0.00,,,0.00,WeatherCatV1.15B25,2013-06-21 18:15:00,
2013-06-21 14:20:00,80.8,64.6,30.14,SSW,211,0.0,2.0,58,0.00,,,0.00,WeatherCatV1.15B25,2013-06-21 18:20:00,
2013-06-21 14:23:00,80.8,65.1,30.14,SSW,211,0.0,1.0,59,0.00,,,0.00,WeatherCatV1.15B25,2013-06-21 18:23:00,
2013-06-21 14:28:00,81.2,64.5,30.14,SW,219,0.0,1.0,57,0.00,,,0.00,WeatherCatV1.15B25,2013-06-21 18:28:00,
2013-06-21 14:33:00,82.0,64.7,30.14,WSW,256,0.0,3.0,56,0.00,,,0.00,WeatherCatV1.15B25,2013-06-21 18:33:00,
2013-06-21 14:38:00,82.1,63.8,30.14,SW,235,0.0,1.0,54,0.00,,,0.00,WeatherCatV1.15B25,2013-06-21 18:38:00,
2013-06-21 14:40:00,82.2,64.4,30.14,SW,235,0.0,1.0,55,0.00,,,0.00,WeatherCatV1.15B25,2013-06-21 18:40:00,
2013-06-21 14:45:00,82.8,64.4,30.13,SSE,159,1.0,1.0,54,0.00,,,0.00,WeatherCatV1.15B25,2013-06-21 18:45:00,
2013-06-21 14:47:00,82.9,65.0,30.14,West,270,0.0,3.0,55,0.00,,,0.00,WeatherCatV1.15B25,2013-06-21 18:47:00,
2013-06-21 14:52:00,83.3,63.8,30.14,South,173,1.0,3.0,52,0.00,,,0.00,WeatherCatV1.15B25,2013-06-21 18:52:00,
2013-06-21 14:57:00,83.6,63.0,30.14,WSW,238,0.0,5.0,50,0.00,,,0.00,WeatherCatV1.15B25,2013-06-21 18:57:00,
2013-06-21 15:02:00,84.1,64.0,30.13,WSW,244,0.0,3.0,51,0.00,,,0.00,WeatherCatV1.15B25,2013-06-21 19:02:00,
2013-06-21 15:07:00,84.2,63.5,30.13,South,177,1.0,1.0,50,0.00,,,0.00,WeatherCatV1.15B25,2013-06-21 19:07:00,
2013-06-21 15:12:00,84.4,63.7,30.13,South,169,1.0,3.0,50,0.00,,,0.00,WeatherCatV1.15B25,2013-06-21 19:12:00,
2013-06-21 15:17:00,84.2,63.5,30.13,SSE,163,0.0,7.0,50,0.00,,,0.00,WeatherCatV1.15B25,2013-06-21 19:17:00,
2013-06-21 15:22:00,83.4,61.0,30.13,South,184,0.0,6.0,47,0.00,,,0.00,WeatherCatV1.15B25,2013-06-21 19:22:00,
2013-06-21 15:27:00,82.8,62.2,30.13,SE,144,0.0,1.0,50,0.00,,,0.00,WeatherCatV1.15B25,2013-06-21 19:27:00,
2013-06-21 15:32:00,82.7,62.7,30.13,South,184,0.0,1.0,51,0.00,,,0.00,WeatherCatV1.15B25,2013-06-21 19:32:00,
2013-06-21 15:37:00,82.7,63.3,30.14,South,184,0.0,0.0,52,0.00,,,0.00,WeatherCatV1.15B25,2013-06-21 19:37:00,
2013-06-21 15:42:00,82.1,62.1,30.14,South,189,0.0,2.0,51,0.00,,,0.00,WeatherCatV1.15B25,2013-06-21 19:42:00,
2013-06-21 15:47:00,81.6,62.2,30.13,SSW,196,0.0,2.0,52,0.00,,,0.00,WeatherCatV1.15B25,2013-06-21 19:47:00,
2013-06-21 15:52:00,81.6,61.1,30.13,SSW,194,0.0,4.0,50,0.00,,,0.00,WeatherCatV1.15B25,2013-06-21 19:52:00,
2013-06-21 15:57:00,81.9,61.4,30.13,SW,231,1.0,4.0,50,0.00,,,0.00,WeatherCatV1.15B25,2013-06-21 19:57:00,
2013-06-21 16:02:00,81.7,61.2,30.14,WSW,242,0.0,0.0,50,0.00,,,0.00,WeatherCatV1.15B25,2013-06-21 20:02:00,
2013-06-21 16:07:00,82.0,61.5,30.14,SSW,198,0.0,4.0,50,0.00,,,0.00,WeatherCatV1.15B25,2013-06-21 20:07:00,
2013-06-21 16:12:00,82.4,63.0,30.14,WSW,246,3.0,4.0,52,0.00,,,0.00,WeatherCatV1.15B25,2013-06-21 20:12:00,
2013-06-21 16:17:00,82.2,61.7,30.14,WSW,256,0.0,4.0,50,0.00,,,0.00,WeatherCatV1.15B25,2013-06-21 20:17:00,
2013-06-21 16:22:00,82.2,60.5,30.14,WSW,244,3.0,5.0,48,0.00,,,0.00,WeatherCatV1.15B25,2013-06-21 20:22:00,
2013-06-21 16:27:00,82.2,61.1,30.13,NW,323,0.0,2.0,49,0.00,,,0.00,WeatherCatV1.15B25,2013-06-21 20:27:00,
2013-06-21 16:32:00,82.0,62.1,30.13,SSW,198,0.0,0.0,51,0.00,,,0.00,WeatherCatV1.15B25,2013-06-21 20:32:00,
2013-06-21 16:37:00,81.9,62.5,30.13,SSW,198,0.0,0.0,52,0.00,,,0.00,WeatherCatV1.15B25,2013-06-21 20:37:00,
2013-06-21 16:42:00,81.8,61.9,30.13,SSW,198,0.0,0.0,51,0.00,,,0.00,WeatherCatV1.15B25,2013-06-21 20:42:00,
2013-06-21 16:47:00,81.8,61.3,30.13,SW,233,1.0,5.0,50,0.00,,,0.00,WeatherCatV1.15B25,2013-06-21 20:47:00,
2013-06-21 16:52:00,82.0,61.5,30.12,SSE,165,0.0,1.0,50,0.00,,,0.00,WeatherCatV1.15B25,2013-06-21 20:52:00,
2013-06-21 16:57:00,82.7,63.3,30.12,SSW,211,3.0,5.0,52,0.00,,,0.00,WeatherCatV1.15B25,2013-06-21 20:57:00,
2013-06-21 17:02:00,83.3,62.1,30.12,SW,221,0.0,1.0,49,0.00,,,0.00,WeatherCatV1.15B25,2013-06-21 21:02:00,
2013-06-21 17:07:00,83.4,61.6,30.12,SW,233,1.0,2.0,48,0.00,,,0.00,WeatherCatV1.15B25,2013-06-21 21:07:00,
2013-06-21 17:12:00,83.2,61.4,30.12,South,191,0.0,2.0,48,0.00,,,0.00,WeatherCatV1.15B25,2013-06-21 21:12:00,
2013-06-21 17:17:00,83.3,60.3,30.12,SW,227,1.0,3.0,46,0.00,,,0.00,WeatherCatV1.15B25,2013-06-21 21:17:00,
2013-06-21 17:22:00,83.5,61.1,30.12,SSW,213,0.0,3.0,47,0.00,,,0.00,WeatherCatV1.15B25,2013-06-21 21:22:00,
2013-06-21 17:27:00,83.7,60.7,30.12,WSW,252,2.0,6.0,46,0.00,,,0.00,WeatherCatV1.15B25,2013-06-21 21:27:00,
2013-06-21 17:32:00,83.7,61.3,30.12,SW,234,0.0,0.0,47,0.00,,,0.00,WeatherCatV1.15B25,2013-06-21 21:32:00,
2013-06-21 17:37:00,83.7,60.1,30.12,SW,218,3.0,5.0,45,0.00,,,0.00,WeatherCatV1.15B25,2013-06-21 21:37:00,
2013-06-21 17:42:00,83.4,59.8,30.12,WSW,252,0.0,2.0,45,0.00,,,0.00,WeatherCatV1.15B25,2013-06-21 21:42:00,
2013-06-21 17:47:00,83.0,60.7,30.12,SW,230,0.0,2.0,47,0.00,,,0.00,WeatherCatV1.15B25,2013-06-21 21:47:00,
2013-06-21 17:52:00,82.9,61.2,30.12,WSW,238,1.0,3.0,48,0.00,,,0.00,WeatherCatV1.15B25,2013-06-21 21:52:00,
2013-06-21 17:57:00,82.7,61.0,30.12,WSW,238,0.0,1.0,48,0.00,,,0.00,WeatherCatV1.15B25,2013-06-21 21:57:00,
2013-06-21 18:02:00,82.6,60.9,30.12,SW,232,0.0,1.0,48,0.00,,,0.00,WeatherCatV1.15B25,2013-06-21 22:02:00,
2013-06-21 18:07:00,82.4,61.9,30.12,SW,232,0.0,1.0,50,0.00,,,0.00,WeatherCatV1.15B25,2013-06-21 22:07:00,
2013-06-21 18:12:00,82.0,61.5,30.12,SW,232,0.0,0.0,50,0.00,,,0.00,WeatherCatV1.15B25,2013-06-21 22:12:00,
2013-06-21 18:17:00,81.8,61.9,30.12,SW,232,0.0,0.0,51,0.00,,,0.00,WeatherCatV1.15B25,2013-06-21 22:17:00,
2013-06-21 18:22:00,81.7,62.9,30.13,SW,232,0.0,0.0,53,0.00,,,0.00,WeatherCatV1.15B25,2013-06-21 22:22:00,
2013-06-21 18:27:00,81.3,62.5,30.13,SW,232,0.0,0.0,53,0.00,,,0.00,WeatherCatV1.15B25,2013-06-21 22:27:00,
2013-06-21 18:32:00,81.0,60.0,30.13,SW,217,0.0,3.0,49,0.00,,,0.00,WeatherCatV1.15B25,2013-06-21 22:32:00,
2013-06-21 18:37:00,81.0,60.6,30.13,SW,217,0.0,0.0,50,0.00,,,0.00,WeatherCatV1.15B25,2013-06-21 22:37:00,
2013-06-21 18:42:00,80.9,64.2,30.13,SSW,193,0.0,0.0,57,0.00,,,0.00,WeatherCatV1.15B25,2013-06-21 22:42:00,
2013-06-21 18:47:00,80.5,65.3,30.13,South,173,1.0,3.0,60,0.00,,,0.00,WeatherCatV1.15B25,2013-06-21 22:47:00,
2013-06-21 18:52:00,79.8,65.1,30.13,SSE,152,2.0,2.0,61,0.00,,,0.00,WeatherCatV1.15B25,2013-06-21 22:52:00,
2013-06-21 18:57:00,79.3,65.1,30.14,ESE,121,0.0,3.0,62,0.00,,,0.00,WeatherCatV1.15B25,2013-06-21 22:57:00,
2013-06-21 19:02:00,79.1,65.4,30.14,ESE,121,0.0,0.0,63,0.00,,,0.00,WeatherCatV1.15B25,2013-06-21 23:02:00,
2013-06-21 19:07:00,78.9,65.2,30.14,SE,142,0.0,2.0,63,0.00,,,0.00,WeatherCatV1.15B25,2013-06-21 23:07:00,
2013-06-21 19:12:00,78.7,65.5,30.14,South,185,0.0,0.0,64,0.00,,,0.00,WeatherCatV1.15B25,2013-06-21 23:12:00,
2013-06-21 19:17:00,78.6,65.8,30.14,South,186,0.0,2.0,65,0.00,,,0.00,WeatherCatV1.15B25,2013-06-21 23:17:00,
2013-06-21 19:22:00,78.4,66.1,30.14,South,186,0.0,0.0,66,0.00,,,0.00,WeatherCatV1.15B25,2013-06-21 23:22:00,
2013-06-21 19:27:00,78.1,65.8,30.14,South,186,1.0,3.0,66,0.00,,,0.00,WeatherCatV1.15B25,2013-06-21 23:27:00,
2013-06-21 19:32:00,77.9,66.0,30.14,South,186,0.0,1.0,67,0.00,,,0.00,WeatherCatV1.15B25,2013-06-21 23:32:00,
2013-06-21 19:37:00,77.6,65.8,30.14,South,186,0.0,0.0,67,0.00,,,0.00,WeatherCatV1.15B25,2013-06-21 23:37:00,
2013-06-21 19:42:00,77.3,65.9,30.14,South,186,0.0,1.0,68,0.00,,,0.00,WeatherCatV1.15B25,2013-06-21 23:42:00,
2013-06-21 19:47:00,77.2,65.8,30.14,South,186,0.0,0.0,68,0.00,,,0.00,WeatherCatV1.15B25,2013-06-21 23:47:00,
2013-06-21 19:52:00,77.0,65.6,30.14,South,186,0.0,0.0,68,0.00,,,0.00,WeatherCatV1.15B25,2013-06-21 23:52:00,
2013-06-21 19:57:00,76.9,65.9,30.14,South,186,0.0,0.0,69,0.00,,,0.00,WeatherCatV1.15B25,2013-06-21 23:57:00,
2013-06-21 20:02:00,76.7,65.7,30.14,WSW,254,0.0,1.0,69,0.00,,,0.00,WeatherCatV1.15B25,2013-06-22 00:02:00,
2013-06-21 20:07:00,76.5,66.0,30.14,West,274,0.0,1.0,70,0.00,,,0.00,WeatherCatV1.15B25,2013-06-22 00:07:00,
2013-06-21 20:12:00,76.2,65.7,30.14,West,277,0.0,3.0,70,0.00,,,0.00,WeatherCatV1.15B25,2013-06-22 00:12:00,
2013-06-21 20:17:00,76.0,65.9,30.14,West,274,0.0,2.0,71,0.00,,,0.00,WeatherCatV1.15B25,2013-06-22 00:17:00,
2013-06-21 20:22:00,75.8,65.7,30.14,West,274,0.0,0.0,71,0.00,,,0.00,WeatherCatV1.15B25,2013-06-22 00:22:00,
2013-06-21 20:27:00,75.6,65.5,30.14,West,274,0.0,0.0,71,0.00,,,0.00,WeatherCatV1.15B25,2013-06-22 00:27:00,
2013-06-21 20:32:00,75.3,65.6,30.15,West,274,0.0,0.0,72,0.00,,,0.00,WeatherCatV1.15B25,2013-06-22 00:32:00,
2013-06-21 20:37:00,75.1,65.4,30.15,West,274,0.0,0.0,72,0.00,,,0.00,WeatherCatV1.15B25,2013-06-22 00:37:00,
2013-06-21 20:42:00,74.9,65.6,30.14,West,274,0.0,0.0,73,0.00,,,0.00,WeatherCatV1.15B25,2013-06-22 00:42:00,
2013-06-21 20:47:00,74.7,65.5,30.14,West,274,0.0,0.0,73,0.00,,,0.00,WeatherCatV1.15B25,2013-06-22 00:47:00,
2013-06-21 20:52:00,74.4,65.2,30.15,West,274,0.0,0.0,73,0.00,,,0.00,WeatherCatV1.15B25,2013-06-22 00:52:00,
2013-06-21 20:57:00,74.1,65.3,30.15,West,274,0.0,0.0,74,0.00,,,0.00,WeatherCatV1.15B25,2013-06-22 00:57:00,
2013-06-21 21:02:00,73.8,65.0,30.15,West,274,0.0,0.0,74,0.00,,,0.00,WeatherCatV1.15B25,2013-06-22 01:02:00,
2013-06-21 21:07:00,73.5,65.1,30.15,West,274,0.0,0.0,75,0.00,,,0.00,WeatherCatV1.15B25,2013-06-22 01:07:00,
2013-06-21 21:12:00,73.2,64.8,30.15,West,274,0.0,0.0,75,0.00,,,0.00,WeatherCatV1.15B25,2013-06-22 01:12:00,
2013-06-21 21:17:00,73.0,64.2,30.15,West,274,0.0,0.0,74,0.00,,,0.00,WeatherCatV1.15B25,2013-06-22 01:17:00,
2013-06-21 21:22:00,73.0,64.6,30.15,West,274,0.0,0.0,75,0.00,,,0.00,WeatherCatV1.15B25,2013-06-22 01:22:00,
2013-06-21 21:27:00,72.8,64.0,30.15,West,274,0.0,0.0,74,0.00,,,0.00,WeatherCatV1.15B25,2013-06-22 01:27:00,
2013-06-21 21:32:00,72.7,64.3,30.15,West,274,0.0,0.0,75,0.00,,,0.00,WeatherCatV1.15B25,2013-06-22 01:32:00,
2013-06-21 21:37:00,72.5,63.7,30.16,West,274,0.0,0.0,74,0.00,,,0.00,WeatherCatV1.15B25,2013-06-22 01:37:00,
2013-06-21 21:42:00,72.3,63.5,30.16,West,272,0.0,1.0,74,0.00,,,0.00,WeatherCatV1.15B25,2013-06-22 01:42:00,
2013-06-21 21:47:00,72.1,63.7,30.16,West,272,0.0,0.0,75,0.00,,,0.00,WeatherCatV1.15B25,2013-06-22 01:47:00,
2013-06-21 21:52:00,71.9,63.9,30.16,West,272,0.0,0.0,76,0.00,,,0.00,WeatherCatV1.15B25,2013-06-22 01:52:00,
2013-06-21 21:57:00,71.7,63.7,30.16,West,272,0.0,0.0,76,0.00,,,0.00,WeatherCatV1.15B25,2013-06-22 01:57:00,
2013-06-21 22:02:00,71.3,63.3,30.16,West,272,0.0,0.0,76,0.00,,,0.00,WeatherCatV1.15B25,2013-06-22 02:02:00,
2013-06-21 22:07:00,71.0,63.4,30.16,West,264,0.0,0.0,77,0.00,,,0.00,WeatherCatV1.15B25,2013-06-22 02:07:00,
2013-06-21 22:12:00,70.6,63.0,30.16,WSW,249,0.0,1.0,77,0.00,,,0.00,WeatherCatV1.15B25,2013-06-22 02:12:00,
2013-06-21 22:17:00,70.3,62.7,30.16,WSW,247,0.0,1.0,77,0.00,,,0.00,WeatherCatV1.15B25,2013-06-22 02:17:00,
2013-06-21 22:22:00,70.0,62.4,30.16,WSW,242,0.0,1.0,77,0.00,,,0.00,WeatherCatV1.15B25,2013-06-22 02:22:00,
2013-06-21 22:27:00,69.8,62.3,30.16,WSW,254,0.0,1.0,77,0.00,,,0.00,WeatherCatV1.15B25,2013-06-22 02:27:00,
2013-06-21 22:32:00,69.6,62.4,30.16,WSW,254,0.0,0.0,78,0.00,,,0.00,WeatherCatV1.15B25,2013-06-22 02:32:00,
2013-06-21 22:37:00,69.5,62.3,30.16,WSW,254,0.0,0.0,78,0.00,,,0.00,WeatherCatV1.15B25,2013-06-22 02:37:00,
2013-06-21 22:42:00,69.4,62.2,30.16,WSW,255,1.0,1.0,78,0.00,,,0.00,WeatherCatV1.15B25,2013-06-22 02:42:00,
2013-06-21 22:47:00,69.2,62.0,30.16,WNW,292,0.0,1.0,78,0.00,,,0.00,WeatherCatV1.15B25,2013-06-22 02:47:00,
2013-06-21 22:52:00,69.1,62.3,30.16,WNW,292,0.0,0.0,79,0.00,,,0.00,WeatherCatV1.15B25,2013-06-22 02:52:00,
2013-06-21 22:57:00,69.0,61.8,30.16,WNW,292,0.0,0.0,78,0.00,,,0.00,WeatherCatV1.15B25,2013-06-22 02:57:00,
2013-06-21 23:02:00,68.9,61.7,30.15,West,271,0.0,0.0,78,0.00,,,0.00,WeatherCatV1.15B25,2013-06-22 03:02:00,
2013-06-21 23:07:00,68.8,61.7,30.16,West,271,0.0,0.0,78,0.00,,,0.00,WeatherCatV1.15B25,2013-06-22 03:07:00,
2013-06-21 23:12:00,68.8,61.3,30.15,West,271,0.0,0.0,77,0.00,,,0.00,WeatherCatV1.15B25,2013-06-22 03:12:00,
2013-06-21 23:17:00,68.7,61.2,30.16,West,271,0.0,0.0,77,0.00,,,0.00,WeatherCatV1.15B25,2013-06-22 03:17:00,
2013-06-21 23:22:00,68.6,61.1,30.16,North,2,0.0,2.0,77,0.00,,,0.00,WeatherCatV1.15B25,2013-06-22 03:22:00,
2013-06-21 23:27:00,68.4,60.9,30.16,North,2,0.0,0.0,77,0.00,,,0.00,WeatherCatV1.15B25,2013-06-22 03:27:00,
2013-06-21 23:32:00,68.3,61.2,30.16,West,277,2.0,2.0,78,0.00,,,0.00,WeatherCatV1.15B25,2013-06-22 03:32:00,
2013-06-21 23:37:00,68.1,60.6,30.16,NW,316,0.0,0.0,77,0.00,,,0.00,WeatherCatV1.15B25,2013-06-22 03:37:00,
2013-06-21 23:42:00,68.0,60.1,30.16,NW,308,0.0,0.0,76,0.00,,,0.00,WeatherCatV1.15B25,2013-06-22 03:42:00,
2013-06-21 23:47:00,68.0,60.1,30.16,West,280,0.0,0.0,76,0.00,,,0.00,WeatherCatV1.15B25,2013-06-22 03:47:00,
2013-06-21 23:52:00,67.9,60.0,30.16,West,280,0.0,0.0,76,0.00,,,0.00,WeatherCatV1.15B25,2013-06-22 03:52:00,
2013-06-21 23:57:00,67.9,59.7,30.15,West,280,0.0,1.0,75,0.00,,,0.00,WeatherCatV1.15B25,2013-06-22 03:57:00,